User: anonymous   Login
Location: Unspecified
(28.9222°N, 0.0000°E)
Time: 13:35:33
(UTC+00:00)
Language:

Sep Motor Cover - Orbit

View from above orbital plane
View from above orbital plane
View from above satellite
View from above satellite

Ground track
Ground track

The orbit is defined by the following mean orbital elements,

1 18476U          26088.06438441 +.00000000 +00000-0 +11971-3 0 00005
2 18476  70.9894 322.9821 0207651 167.6665 342.4193 13.73206469    07
Epoch (UTC): 29 March 2026 01:32:42
Eccentricity: 0.0207651
inclination: 70.9894°
perigee height: 835 km
apogee height: 1141 km
right ascension of ascending node: 322.9821°
argument of perigee: 167.6665°
revolutions per day: 13.73206469
mean anomaly at epoch: 342.4193°

The dashed part of the orbit path shows where the satellite is in the earth's shadow,  

DLR